#timestamp,LO_Frequency,Hit,StdDev 
1696125615.4,286047002.5,Y
1696125635.2,286047000.0,P
1696125655.1,286047002.2,N
1696125656.0,286047002.2,N
1696125675.8,286047002.1,N
1696125695.7,286047002.7,Y
1696125715.5,286046998.7,P
1696125735.3,286046999.5,N
1696125755.2,286046996.8,N
1696125775.0,286046998.7,N
1696125775.9,286046998.7,N
1696125795.7,286046996.8,N
1696125815.6,286046997.1,N
1696125835.4,286046996.6,N
1696125855.3,286046996.8,N
1696125875.1,286046996.6,N
1696125876.0,286046996.6,N
1696125895.8,286046998.4,N
1696125915.7,286047000.6,N
1696125935.5,286046999.7,N
1696125955.4,286046999.9,N
1696125975.2,286047000.9,N
1696125995.0,286047000.6,N
1696125995.9,286047000.6,N
1696126015.8,286047000.8,N
1696126035.6,286047002.0,N
1696126055.4,286047001.5,N
1696126075.3,286047000.6,N
1696126095.1,286046999.6,N
1696126115.9,286046997.5,N
1696126135.7,286046995.1,N
1696126155.5,286046999.5,N
1696126175.4,286046997.3,N
1696126195.2,286046998.3,N
1696126215.1,286047000.1,N
1696126216.0,286047000.1,N
1696126235.8,286047001.0,N
1696126255.6,286047001.1,N
1696126275.5,286046998.5,N
1696126295.3,286046999.8,N
1696126315.1,286047000.9,N
1696126335.9,286046996.6,N
1696126355.7,286046997.6,N
1696126375.6,286046998.0,N
1696126395.4,286046995.2,N
1696126415.2,286046996.0,N
1696126435.1,286046996.4,N
1696126436.0,286046996.4,N
1696126455.8,286046995.9,N
1696126475.7,286046995.1,N
1696126495.5,286046997.0,N
1696126515.3,286046997.3,N
1696126535.2,286046997.3,N
1696126555.9,286046996.7,N
1696126575.7,286046996.8,N
1696126595.6,286046996.6,N
1696126615.4,286046997.7,N
1696126635.3,286046997.1,N
1696126655.1,286046997.0,N
1696126656.0,286046997.0,N
1696126675.8,286046997.3,N
1696126695.7,286046995.0,Y
1696126715.5,286047001.0,P
1696126735.3,286047000.8,N
1696126755.2,286047000.3,N
1696126775.0,286047001.7,N
1696126775.9,286047001.7,N
1696126795.8,286047001.6,N
1696126815.6,286047001.4,N
1696126835.4,286047002.0,N
1696126855.3,286047000.1,N
1696126875.1,286047002.2,N
1696126895.8,286047002.3,N
1696126915.7,286047002.5,N
1696126935.5,286047001.5,N
1696126955.4,286047000.4,N
1696126975.2,286046998.7,N
1696126995.0,286046998.5,N
1696126995.9,286046998.5,N
1696127015.8,286046998.3,N
1696127035.6,286046998.5,N
1696127055.5,286046997.0,N
1696127075.3,286046997.3,N
1696127095.1,286046996.6,N
1696127115.9,286046999.1,N
1696127135.7,286046999.6,N
1696127155.5,286046998.8,N
1696127175.4,286046999.4,N
1696127195.2,286046996.5,N
1696127215.1,286046998.4,N
1696127216.0,286046998.4,N
1696127235.8,286046999.1,N
1696127255.6,286047001.0,N
1696127275.5,286047002.0,N
1696127295.3,286047000.3,N
1696127315.2,286047002.1,N
1696127335.9,286047002.4,N
1696127355.7,286047000.3,N
1696127375.6,286047000.2,N
1696127395.4,286046999.8,N
1696127415.2,286047002.2,N
1696127435.1,286047002.6,N
1696127436.0,286047002.6,N
1696127455.8,286047002.1,N
1696127475.7,286047002.3,N
1696127495.5,286047002.6,N
1696127515.3,286047004.0,N
1696127535.2,286047003.4,N
1696127555.0,286047001.7,N
1696127555.9,286047001.7,N
1696127575.7,286047002.7,N
1696127595.6,286047000.2,N
1696127615.4,286046998.3,N
1696127635.3,286047000.9,N
1696127655.1,286047000.0,N
1696127656.0,286047000.0,N
1696127675.8,286046998.7,N
1696127695.7,286046999.4,N
1696127715.5,286046997.1,N
1696127735.4,286046997.9,N
1696127755.2,286046995.3,N
1696127775.0,286046997.8,N
1696127775.9,286046997.8,N
1696127795.8,286046995.0,N
1696127815.6,286046997.9,N
1696127835.4,286046998.0,N
1696127855.3,286046996.1,N
1696127875.1,286046998.0,N
1696127895.9,286046995.4,N
1696127915.7,286046996.1,N
1696127935.5,286046994.9,N
1696127955.4,286046998.0,N
1696127975.2,286046999.5,N
1696127995.0,286046999.0,N
1696127995.9,286046999.0,N
1696128015.8,286046996.5,N
1696128035.6,286046997.1,N
1696128055.5,286046995.2,N
1696128075.3,286046995.1,N
1696128095.1,286046997.4,N
1696128115.9,286047001.1,N
1696128135.7,286046998.7,N
1696128155.5,286046997.3,N
1696128175.4,286046995.9,N
1696128195.2,286046995.7,N
1696128215.1,286046995.8,N
1696128216.0,286046995.8,N
1696128235.8,286046994.5,Y
1696128255.6,286046995.1,P
1696128275.5,286046993.8,P
1696128295.3,286046993.4,P
1696128315.2,286046992.1,Y
1696128335.9,286046996.7,P
1696128355.7,286046996.8,P
1696128375.6,286046997.0,P
1696128395.4,286046997.7,N
1696128415.2,286046999.6,N
1696128435.1,286046996.5,N
1696128436.0,286046996.5,N
1696128455.8,286046997.2,N
1696128475.7,286046996.5,N
1696128495.5,286047000.3,N
1696128515.3,286047002.7,N
1696128535.2,286046999.7,N
1696128555.9,286047002.7,N
1696128575.7,286046998.5,N
1696128595.6,286046996.9,N
1696128615.4,286046996.9,N
1696128635.2,286046997.4,N
1696128655.1,286046997.3,N
1696128656.0,286046997.3,N
1696128675.8,286046997.2,N
1696128695.7,286046998.0,N
1696128715.5,286046997.3,N
1696128735.3,286046996.6,N
1696128755.2,286047000.8,N
1696128775.0,286047001.2,N
1696128775.9,286047001.2,N
1696128795.7,286047000.8,N
1696128815.6,286046997.0,N
1696128835.4,286046997.6,N
1696128855.3,286046998.0,N
1696128875.1,286046998.0,N
1696128876.0,286046998.0,N
1696128895.8,286046995.5,N
1696128915.7,286046996.0,N
1696128935.5,286046997.7,N
1696128955.3,286046998.0,N
1696128975.2,286046994.9,N
1696128995.0,286046998.0,N
1696128995.9,286046998.0,N
1696129015.8,286046996.2,N
1696129035.6,286046993.4,Y
1696129055.4,286046995.0,P
1696129075.3,286046995.0,P
1696129095.1,286046999.2,N
1696129115.9,286046996.7,N
1696129135.7,286046996.7,N
1696129155.5,286046997.6,N
1696129175.4,286046998.0,N
1696129195.2,286046993.3,Y
